Wetterdaten: aktuell Mittwoch, 24.07.2019 11:05
Datum Zeit Temp. Aussen Feuchte A. Sonne Luftdruck Regen Richtung Richtung Sonnen-Zeit Windben
24.07.2019 11:05 30,7 C 33 % 100 % 1016,1 hPa 0,0 l/m SO 133 5 min 11,2 km/h (2 Bft)
24.07.2019 11:00 30,6 C 33 % 100 % 1016,1 hPa 0,0 l/m O-SO 116 5 min 6,0 km/h (2 Bft)
24.07.2019 10:55 30,7 C 33 % 100 % 1016,1 hPa 0,0 l/m S 177 5 min 16,8 km/h (3 Bft)
24.07.2019 10:50 30,4 C 33 % 100 % 1016,1 hPa 0,0 l/m S-SO 153 5 min 15,6 km/h (3 Bft)
24.07.2019 10:45 29,8 C 34 % 100 % 1016,2 hPa 0,0 l/m S 189 5 min 11,2 km/h (2 Bft)
24.07.2019 10:40 29,6 C 35 % 100 % 1016,2 hPa 0,0 l/m S 180 5 min 10,4 km/h (2 Bft)
24.07.2019 10:35 29,4 C 35 % 100 % 1016,2 hPa 0,0 l/m S-SW 197 5 min 11,2 km/h (2 Bft)
24.07.2019 10:30 29,1 C 35 % 100 % 1016,3 hPa 0,0 l/m S-SO 153 5 min 7,8 km/h (2 Bft)
24.07.2019 10:25 28,8 C 35 % 100 % 1016,3 hPa 0,0 l/m W-SW 245 5 min 10,4 km/h (2 Bft)
24.07.2019 10:20 28,4 C 36 % 100 % 1016,3 hPa 0,0 l/m SW 233 5 min 6,0 km/h (2 Bft)
24.07.2019 10:15 28,1 C 37 % 100 % 1016,3 hPa 0,0 l/m S-SW 193 5 min 0,0 km/h (0 Bft)
24.07.2019 10:10 28,1 C 37 % 100 % 1016,3 hPa 0,0 l/m W-SW 237 5 min 0,0 km/h (0 Bft)
24.07.2019 10:05 27,9 C 36 % 100 % 1016,4 hPa 0,0 l/m S 177 5 min 0,0 km/h (0 Bft)
24.07.2019 10:00 27,7 C 37 % 100 % 1016,4 hPa 0,0 l/m SW 227 5 min 0,0 km/h (0 Bft)
24.07.2019 09:55 27,5 C 37 % 100 % 1016,4 hPa 0,0 l/m SO 127 5 min 0,0 km/h (0 Bft)
24.07.2019 09:50 27,3 C 38 % 100 % 1016,4 hPa 0,0 l/m SW 216 5 min 0,0 km/h (0 Bft)
24.07.2019 09:45 27,1 C 37 % 100 % 1016,4 hPa 0,0 l/m S-SW 205 5 min 0,0 km/h (0 Bft)
24.07.2019 09:40 26,8 C 37 % 100 % 1016,5 hPa 0,0 l/m S-SO 156 5 min 0,0 km/h (0 Bft)
24.07.2019 09:35 26,5 C 38 % 100 % 1016,5 hPa 0,0 l/m S-SW 209 5 min 0,0 km/h (0 Bft)
24.07.2019 09:30 26,2 C 40 % 100 % 1016,5 hPa 0,0 l/m SO 137 5 min 0,0 km/h (0 Bft)
24.07.2019 09:25 26,0 C 40 % 100 % 1016,5 hPa 0,0 l/m SW 236 5 min 0,0 km/h (0 Bft)
24.07.2019 09:20 25,8 C 43 % 100 % 1016,6 hPa 0,0 l/m SW 236 5 min 0,0 km/h (0 Bft)
24.07.2019 09:15 25,4 C 40 % 100 % 1016,6 hPa 0,0 l/m NW 316 5 min 0,0 km/h (0 Bft)
24.07.2019 09:10 25,2 C 42 % 100 % 1016,6 hPa 0,0 l/m NW 316 5 min 0,0 km/h (0 Bft)
24.07.2019 09:05 25,0 C 43 % 100 % 1016,6 hPa 0,0 l/m NW 316 5 min 0,0 km/h (0 Bft)
24.07.2019 09:00 24,8 C 43 % 100 % 1016,7 hPa 0,0 l/m NW 316 5 min 0,0 km/h (0 Bft)
24.07.2019 08:55 24,7 C 46 % 100 % 1016,7 hPa 0,0 l/m NW 316 5 min 0,0 km/h (0 Bft)
24.07.2019 08:50 24,5 C 44 % 100 % 1016,7 hPa 0,0 l/m NW 316 5 min 0,0 km/h (0 Bft)
24.07.2019 08:45 24,3 C 44 % 100 % 1016,7 hPa 0,0 l/m NW 316 5 min 0,0 km/h (0 Bft)
24.07.2019 08:40 24,0 C 44 % 100 % 1016,7 hPa 0,0 l/m NW 316 5 min 0,0 km/h (0 Bft)
24.07.2019 08:35 23,7 C 44 % 100 % 1016,8 hPa 0,0 l/m NW 316 5 min 0,0 km/h (0 Bft)
24.07.2019 08:30 23,3 C 47 % 99 % 1016,8 hPa 0,0 l/m NW 316 5 min 0,0 km/h (0 Bft)
24.07.2019 08:25 23,0 C 47 % 99 % 1016,8 hPa 0,0 l/m NW 316 5 min 0,0 km/h (0 Bft)
24.07.2019 08:20 22,7 C 48 % 98 % 1016,9 hPa 0,0 l/m NW 316 5 min 0,0 km/h (0 Bft)
24.07.2019 08:15 22,6 C 49 % 97 % 1016,9 hPa 0,0 l/m NW 316 5 min 0,0 km/h (0 Bft)
24.07.2019 08:10 22,5 C 48 % 97 % 1016,9 hPa 0,0 l/m NW 316 5 min 0,0 km/h (0 Bft)
24.07.2019 08:05 22,3 C 49 % 96 % 1016,9 hPa 0,0 l/m N 357 5 min 0,0 km/h (0 Bft)
24.07.2019 08:00 22,0 C 49 % 95 % 1016,9 hPa 0,0 l/m N 357 5 min 0,0 km/h (0 Bft)
24.07.2019 07:55 21,8 C 49 % 95 % 1017,0 hPa 0,0 l/m N 357 5 min 0,0 km/h (0 Bft)
24.07.2019 07:50 21,6 C 49 % 94 % 1017,0 hPa 0,0 l/m N 357 5 min 0,0 km/h (0 Bft)
24.07.2019 07:45 21,3 C 50 % 93 % 1017,0 hPa 0,0 l/m N 357 5 min 0,0 km/h (0 Bft)
24.07.2019 07:40 21,1 C 51 % 92 % 1017,0 hPa 0,0 l/m N 357 5 min 0,0 km/h (0 Bft)
24.07.2019 07:35 20,8 C 52 % 91 % 1017,1 hPa 0,0 l/m N-NO 21 5 min 0,0 km/h (0 Bft)
24.07.2019 07:30 20,7 C 53 % 90 % 1017,1 hPa 0,0 l/m N 357 5 min 0,0 km/h (0 Bft)
24.07.2019 07:25 20,6 C 53 % 88 % 1017,1 hPa 0,0 l/m N 357 5 min 0,0 km/h (0 Bft)
24.07.2019 07:20 20,5 C 53 % 86 % 1017,1 hPa 0,0 l/m N 357 5 min 0,0 km/h (0 Bft)
24.07.2019 07:15 20,4 C 52 % 85 % 1017,1 hPa 0,0 l/m NO 48 5 min 0,0 km/h (0 Bft)
24.07.2019 07:10 20,2 C 52 % 82 % 1017,1 hPa 0,0 l/m NO 48 5 min 0,0 km/h (0 Bft)
24.07.2019 07:05 19,9 C 52 % 80 % 1017,1 hPa 0,0 l/m NO 48 5 min 0,0 km/h (0 Bft)
24.07.2019 07:00 19,6 C 53 % 78 % 1017,2 hPa 0,0 l/m O-NO 72 5 min 0,0 km/h (0 Bft)
24.07.2019 06:55 19,3 C 55 % 75 % 1017,2 hPa 0,0 l/m O 83 5 min 0,0 km/h (0 Bft)
24.07.2019 06:50 18,9 C 59 % 72 % 1017,3 hPa 0,0 l/m N 357 5 min 0,0 km/h (0 Bft)
24.07.2019 06:45 18,7 C 60 % 69 % 1017,3 hPa 0,0 l/m N 357 5 min 0,0 km/h (0 Bft)
24.07.2019 06:40 18,5 C 60 % 66 % 1017,3 hPa 0,0 l/m N 357 5 min 0,0 km/h (0 Bft)
24.07.2019 06:35 18,3 C 60 % 62 % 1017,3 hPa 0,0 l/m N 357 5 min 0,0 km/h (0 Bft)
24.07.2019 06:30 18,1 C 60 % 58 % 1017,3 hPa 0,0 l/m N 357 5 min 0,0 km/h (0 Bft)
24.07.2019 06:25 17,9 C 61 % 54 % 1017,4 hPa 0,0 l/m N 357 5 min 0,0 km/h (0 Bft)
24.07.2019 06:20 17,7 C 60 % 50 % 1017,4 hPa 0,0 l/m N 357 5 min 0,0 km/h (0 Bft)
24.07.2019 06:15 17,6 C 60 % 45 % 1017,4 hPa 0,0 l/m N 357 5 min 0,0 km/h (0 Bft)
24.07.2019 06:10 17,6 C 60 % 40 % 1017,4 hPa 0,0 l/m N 357 5 min 0,0 km/h (0 Bft)
24.07.2019 06:05 17,6 C 60 % 34 % 1017,4 hPa 0,0 l/m N 357 5 min 0,0 km/h (0 Bft)
24.07.2019 06:00 17,3 C 60 % 28 % 1017,4 hPa 0,0 l/m N 357 5 min 0,0 km/h (0 Bft)
24.07.2019 05:55 17,1 C 60 % 21 % 1017,4 hPa 0,0 l/m N-NW 334 0 min 0,0 km/h (0 Bft)
24.07.2019 05:50 17,2 C 60 % 15 % 1017,4 hPa 0,0 l/m N-NW 334 0 min 0,0 km/h (0 Bft)
24.07.2019 05:45 17,3 C 59 % 11 % 1017,4 hPa 0,0 l/m N-NW 334 0 min 0,0 km/h (0 Bft)
24.07.2019 05:40 17,5 C 59 % 7 % 1017,4 hPa 0,0 l/m N-NW 334 0 min 0,0 km/h (0 Bft)
24.07.2019 05:35 17,6 C 59 % 5 % 1017,4 hPa 0,0 l/m N-NW 334 0 min 0,0 km/h (0 Bft)
24.07.2019 05:30 17,5 C 59 % 2 % 1017,4 hPa 0,0 l/m N-NO 17 0 min 0,0 km/h (0 Bft)
24.07.2019 05:25 17,4 C 59 % 0 % 1017,4 hPa 0,0 l/m N-NO 17 0 min 0,0 km/h (0 Bft)
24.07.2019 05:20 17,6 C 58 % 0 % 1017,4 hPa 0,0 l/m N-NO 17 0 min 0,0 km/h (0 Bft)
24.07.2019 05:15 17,9 C 58 % 0 % 1017,4 hPa 0,0 l/m N-NO 17 0 min 0,0 km/h (0 Bft)
24.07.2019 05:10 17,9 C 58 % 0 % 1017,4 hPa 0,0 l/m N-NO 17 0 min 0,0 km/h (0 Bft)
24.07.2019 05:05 17,9 C 58 % 0 % 1017,4 hPa 0,0 l/m N-NO 17 0 min 0,0 km/h (0 Bft)
24.07.2019 05:00 18,0 C 57 % 0 % 1017,3 hPa 0,0 l/m N-NO 17 0 min 0,0 km/h (0 Bft)
24.07.2019 04:55 18,2 C 57 % 0 % 1017,3 hPa 0,0 l/m NO 35 0 min 0,0 km/h (0 Bft)
24.07.2019 04:50 18,2 C 57 % 0 % 1017,3 hPa 0,0 l/m N-NO 15 0 min 0,0 km/h (0 Bft)
24.07.2019 04:45 18,0 C 59 % 0 % 1017,3 hPa 0,0 l/m N-NO 28 0 min 0,0 km/h (0 Bft)
24.07.2019 04:40 17,9 C 60 % 0 % 1017,4 hPa 0,0 l/m N-NO 28 0 min 0,0 km/h (0 Bft)
24.07.2019 04:35 17,7 C 60 % 0 % 1017,4 hPa 0,0 l/m N-NO 16 0 min 0,0 km/h (0 Bft)
24.07.2019 04:30 17,7 C 59 % 0 % 1017,4 hPa 0,0 l/m O-NO 58 0 min 0,0 km/h (0 Bft)
24.07.2019 04:25 17,9 C 59 % 0 % 1017,4 hPa 0,0 l/m O-NO 58 0 min 0,0 km/h (0 Bft)
24.07.2019 04:20 18,0 C 58 % 0 % 1017,3 hPa 0,0 l/m O-NO 58 0 min 0,0 km/h (0 Bft)
24.07.2019 04:15 18,1 C 57 % 0 % 1017,3 hPa 0,0 l/m O 81 0 min 0,0 km/h (0 Bft)
24.07.2019 04:10 18,1 C 57 % 0 % 1017,3 hPa 0,0 l/m O-SO 109 0 min 0,0 km/h (0 Bft)
24.07.2019 04:05 18,2 C 56 % 0 % 1017,3 hPa 0,0 l/m O-SO 110 0 min 0,0 km/h (0 Bft)
24.07.2019 04:00 18,2 C 57 % 0 % 1017,3 hPa 0,0 l/m S 179 0 min 0,0 km/h (0 Bft)
24.07.2019 03:55 18,2 C 57 % 0 % 1017,3 hPa 0,0 l/m S 179 0 min 0,0 km/h (0 Bft)
24.07.2019 03:50 18,1 C 57 % 0 % 1017,3 hPa 0,0 l/m S 179 0 min 0,0 km/h (0 Bft)
24.07.2019 03:45 18,1 C 58 % 0 % 1017,3 hPa 0,0 l/m S 179 0 min 0,0 km/h (0 Bft)
24.07.2019 03:40 18,0 C 58 % 0 % 1017,3 hPa 0,0 l/m S 179 0 min 0,0 km/h (0 Bft)
24.07.2019 03:35 18,0 C 58 % 0 % 1017,3 hPa 0,0 l/m S 179 0 min 0,0 km/h (0 Bft)
24.07.2019 03:30 18,0 C 57 % 0 % 1017,3 hPa 0,0 l/m S 179 0 min 0,0 km/h (0 Bft)
24.07.2019 03:25 18,0 C 57 % 0 % 1017,3 hPa 0,0 l/m S 179 0 min 0,0 km/h (0 Bft)
24.07.2019 03:20 18,1 C 56 % 0 % 1017,3 hPa 0,0 l/m S 179 0 min 0,0 km/h (0 Bft)
24.07.2019 03:15 18,2 C 56 % 0 % 1017,3 hPa 0,0 l/m S 179 0 min 0,0 km/h (0 Bft)
24.07.2019 03:10 18,5 C 56 % 0 % 1017,3 hPa 0,0 l/m S 179 0 min 0,0 km/h (0 Bft)
24.07.2019 03:05 18,6 C 57 % 0 % 1017,3 hPa 0,0 l/m S 179 0 min 0,0 km/h (0 Bft)
24.07.2019 03:00 18,4 C 56 % 0 % 1017,3 hPa 0,0 l/m S 179 0 min 0,0 km/h (0 Bft)
24.07.2019 02:55 18,3 C 56 % 0 % 1017,3 hPa 0,0 l/m S 179 0 min 0,0 km/h (0 Bft)
24.07.2019 02:50 18,3 C 55 % 0 % 1017,3 hPa 0,0 l/m S 179 0 min 0,0 km/h (0 Bft)
24.07.2019 02:45 18,5 C 54 % 0 % 1017,3 hPa 0,0 l/m SW 229 0 min 0,0 km/h (0 Bft)
24.07.2019 02:40 18,7 C 54 % 0 % 1017,3 hPa 0,0 l/m N 360 0 min 0,0 km/h (0 Bft)
24.07.2019 02:35 18,8 C 53 % 0 % 1017,3 hPa 0,0 l/m N 360 0 min 0,0 km/h (0 Bft)
24.07.2019 02:30 19,0 C 52 % 0 % 1017,2 hPa 0,0 l/m N 360 0 min 0,0 km/h (0 Bft)
24.07.2019 02:25 19,3 C 52 % 0 % 1017,2 hPa 0,0 l/m N 360 0 min 0,0 km/h (0 Bft)
24.07.2019 02:20 19,3 C 52 % 0 % 1017,2 hPa 0,0 l/m N 360 0 min 0,0 km/h (0 Bft)
24.07.2019 02:15 19,3 C 52 % 0 % 1017,2 hPa 0,0 l/m N 360 0 min 0,0 km/h (0 Bft)
24.07.2019 02:10 19,3 C 52 % 0 % 1017,2 hPa 0,0 l/m N 360 0 min 0,0 km/h (0 Bft)
24.07.2019 02:05 19,3 C 52 % 0 % 1018,2 hPa 0,0 l/m N 360 0 min 0,0 km/h (0 Bft)
24.07.2019 02:00 19,4 C 52 % 0 % 1018,2 hPa 0,0 l/m N 6 0 min 0,0 km/h (0 Bft)
24.07.2019 01:55 19,4 C 51 % 0 % 1018,2 hPa 0,0 l/m N 6 0 min 0,0 km/h (0 Bft)
24.07.2019 01:50 19,5 C 52 % 0 % 1018,2 hPa 0,0 l/m N 357 0 min 0,0 km/h (0 Bft)
24.07.2019 01:45 19,4 C 52 % 0 % 1018,2 hPa 0,0 l/m N-NO 19 0 min 0,0 km/h (0 Bft)
24.07.2019 01:40 19,5 C 52 % 0 % 1018,2 hPa 0,0 l/m NO 45 0 min 0,0 km/h (0 Bft)
24.07.2019 01:35 19,6 C 52 % 0 % 1018,2 hPa 0,0 l/m NO 45 0 min 0,0 km/h (0 Bft)
24.07.2019 01:30 19,4 C 54 % 0 % 1018,2 hPa 0,0 l/m NO 45 0 min 0,0 km/h (0 Bft)
24.07.2019 01:25 19,2 C 55 % 0 % 1018,2 hPa 0,0 l/m NO 45 0 min 0,0 km/h (0 Bft)
24.07.2019 01:20 19,2 C 55 % 0 % 1018,2 hPa 0,0 l/m NO 45 0 min 0,0 km/h (0 Bft)
24.07.2019 01:15 19,3 C 55 % 0 % 1018,2 hPa 0,0 l/m NO 45 0 min 0,0 km/h (0 Bft)
24.07.2019 01:10 19,3 C 54 % 0 % 1018,2 hPa 0,0 l/m NO 45 0 min 0,0 km/h (0 Bft)
24.07.2019 01:05 19,4 C 53 % 0 % 1018,2 hPa 0,0 l/m NO 45 0 min 0,0 km/h (0 Bft)
24.07.2019 01:00 19,5 C 53 % 0 % 1018,2 hPa 0,0 l/m NO 45 0 min 0,0 km/h (0 Bft)
24.07.2019 00:55 19,7 C 52 % 0 % 1018,2 hPa 0,0 l/m NO 45 0 min 0,0 km/h (0 Bft)
24.07.2019 00:50 19,8 C 51 % 0 % 1018,2 hPa 0,0 l/m NO 45 0 min 0,0 km/h (0 Bft)
24.07.2019 00:45 20,0 C 50 % 0 % 1018,2 hPa 0,0 l/m NO 45 0 min 0,0 km/h (0 Bft)
24.07.2019 00:40 20,2 C 50 % 0 % 1018,1 hPa 0,0 l/m NO 45 0 min 0,0 km/h (0 Bft)
24.07.2019 00:35 20,4 C 49 % 0 % 1018,1 hPa 0,0 l/m NO 45 0 min 0,0 km/h (0 Bft)
24.07.2019 00:30 20,7 C 49 % 0 % 1018,1 hPa 0,0 l/m NO 45 0 min 0,0 km/h (0 Bft)
24.07.2019 00:25 21,0 C 48 % 0 % 1018,1 hPa 0,0 l/m NO 45 0 min 0,0 km/h (0 Bft)
24.07.2019 00:20 21,0 C 48 % 0 % 1018,1 hPa 0,0 l/m NO 42 0 min 0,0 km/h (0 Bft)
24.07.2019 00:15 20,7 C 49 % 0 % 1018,1 hPa 0,0 l/m NO 55 0 min 0,0 km/h (0 Bft)
24.07.2019 00:10 20,6 C 49 % 0 % 1018,1 hPa 0,0 l/m N-NO 17 0 min 0,0 km/h (0 Bft)
24.07.2019 00:05 20,7 C 49 % 0 % 1018,1 hPa 0,0 l/m N-NO 17 0 min 0,0 km/h (0 Bft)
24.07.2019 00:00 20,8 C 49 % 0 % 1018,1 hPa 0,0 l/m N-NO 17 0 min 0,0 km/h (0 Bft)
_ Min-Zeit 05:55 10:50 - 10:55 - - - - 00:00
Minimum _ 17,1 C 33 % - 1016,1 hPa - - - - 0,0 km/h (0 Bft)
_ Max-Zeit 10:55 06:25 08:45 01:20 00:00 - - 06:00 10:55
Maximum _ 30,7 C 61 % 100 % 1018,2 hPa 0,0 l/m - - 5 min 16,8 km/h
S (3 Bft)
Durchschnitt _ 21,0 C 51 % #5:10 h 1017,2 hPa #0,0 l/m S - #5:10 h 0,8 km/h (0 Bft)